Overview Statistics Trail Chart Weather Telemetry Raw packets
 

This is the latest recevied weather packets stored in our database for station/object SR3WXA. If no packets are shown the sender has not sent any weather packets the latest 10 day(s).

<< 159 160 161 162 163 164 165 >>
Time Temp. Humidity Pressure Rain* Wind** Luminosity Snow
1787912254 23.33° C 53% 1014.4 hPa 0 mm - 536 W/m² -
1787912021 23.33° C 53% 1014.3 hPa 0 mm - 457 W/m² -
1787911954 23.33° C 53% 1014.3 hPa 0 mm - 457 W/m² -
1787911775 23.33° C 53% 1014.2 hPa 0 mm - 341 W/m² -
1787911653 23.33° C 53% 1014.2 hPa 0 mm - 341 W/m² -
1787911354 23.33° C 54% 1014.3 hPa 0 mm - 348 W/m² -
1787910811 22.78° C 54% 1014.5 hPa 0 mm - 466 W/m² -
1787910753 22.78° C 54% 1014.5 hPa 0 mm - 466 W/m² -
1787910542 22.78° C 54% 1014.6 hPa 0 mm - 431 W/m² -
1787910454 22.78° C 54% 1014.6 hPa 0 mm - 431 W/m² -
1787910243 22.78° C 54% 1014.5 hPa 0 mm - 311 W/m² -
1787910153 22.78° C 54% 1014.5 hPa 0 mm - 311 W/m² -
1787909995 22.78° C 54% 1014.6 hPa 0 mm - 339 W/m² -
1787909854 22.78° C 54% 1014.6 hPa 0 mm - 339 W/m² -
1787909636 22.78° C 56% 1014.8 hPa 0 mm - 471 W/m² -
1787909554 22.78° C 56% 1014.8 hPa 0 mm - 471 W/m² -
1787909419 22.22° C 56% 1014.9 hPa 0 mm - 522 W/m² -
1787909254 22.22° C 56% 1014.9 hPa 0 mm - 522 W/m² -
1787909057 22.22° C 57% 1015.1 hPa 0 mm - 294 W/m² -
1787908954 22.22° C 57% 1015.1 hPa 0 mm - 294 W/m² -
1787908742 21.67° C 57% 1015.1 hPa 0 mm - 573 W/m² -
1787908653 21.67° C 57% 1015.1 hPa 0 mm - 573 W/m² -
1787908460 21.67° C 57% 1015.1 hPa 0 mm - 584 W/m² -
1787908353 21.67° C 57% 1015.1 hPa 0 mm - 584 W/m² -
1787908117 21.67° C 57% 1015.1 hPa 0 mm - 315 W/m² -

* Rain latest hour (hover to see other rain measurements)
** Current wind speed in m/s (hover to see current wind gust speed)